TimeEST,TemperatureF,Dew PointF,Humidity,Sea Level PressureIn,VisibilityMPH,Wind Direction,Wind SpeedMPH,Gust SpeedMPH,PrecipitationIn,Events,Conditions,WindDirDegrees,DateUTC
12:51 AM,44.1,33.1,65,30.17,10.0,SSW,8.1,-,N/A,,Clear,210,2013-11-16 05:51:00
1:51 AM,43.0,34.0,71,30.16,10.0,SSW,3.5,-,N/A,,Clear,210,2013-11-16 06:51:00
2:51 AM,42.1,35.1,76,30.16,10.0,SSW,3.5,-,N/A,,Clear,210,2013-11-16 07:51:00
3:51 AM,41.0,37.0,86,30.16,10.0,SSW,3.5,-,N/A,,Clear,210,2013-11-16 08:51:00
4:51 AM,41.0,37.0,86,30.17,10.0,South,3.5,-,N/A,,Partly Cloudy,170,2013-11-16 09:51:00
5:51 AM,41.0,37.0,86,30.17,10.0,SSE,3.5,-,N/A,,Overcast,160,2013-11-16 10:51:00
6:51 AM,45.0,36.0,71,30.20,10.0,South,3.5,-,N/A,,Mostly Cloudy,180,2013-11-16 11:51:00
7:51 AM,44.1,37.9,79,30.20,10.0,South,6.9,-,N/A,,Mostly Cloudy,170,2013-11-16 12:51:00
8:51 AM,48.0,39.9,74,30.19,10.0,South,8.1,-,N/A,,Scattered Clouds,180,2013-11-16 13:51:00
9:51 AM,51.1,39.9,66,30.20,10.0,South,9.2,-,N/A,,Mostly Cloudy,180,2013-11-16 14:51:00
10:51 AM,51.1,39.0,63,30.20,10.0,South,9.2,-,N/A,,Mostly Cloudy,180,2013-11-16 15:51:00
11:51 AM,55.9,43.0,62,30.15,10.0,South,11.5,-,N/A,,Mostly Cloudy,180,2013-11-16 16:51:00
12:51 PM,60.1,51.1,72,30.12,10.0,South,11.5,-,N/A,,Mostly Cloudy,180,2013-11-16 17:51:00
1:51 PM,60.1,43.0,53,30.10,10.0,South,11.5,-,N/A,,Mostly Cloudy,180,2013-11-16 18:51:00
2:51 PM,57.9,54.0,87,30.08,10.0,South,13.8,-,N/A,,Overcast,190,2013-11-16 19:51:00
3:51 PM,57.9,48.0,70,30.06,10.0,South,13.8,-,N/A,,Overcast,190,2013-11-16 20:51:00
4:51 PM,57.0,48.0,72,30.07,10.0,South,17.3,-,N/A,,Overcast,190,2013-11-16 21:51:00
5:51 PM,55.0,50.0,83,30.07,10.0,SSW,15.0,-,N/A,,Mostly Cloudy,200,2013-11-16 22:51:00
6:51 PM,55.0,50.0,83,30.05,10.0,South,11.5,-,N/A,,Mostly Cloudy,180,2013-11-16 23:51:00
7:51 PM,55.0,50.0,83,30.05,10.0,South,11.5,-,N/A,,Mostly Cloudy,190,2013-11-17 00:51:00
8:51 PM,54.0,46.9,77,30.02,10.0,South,9.2,-,N/A,,Overcast,190,2013-11-17 01:51:00
9:51 PM,55.0,50.0,83,30.01,10.0,South,9.2,-,N/A,,Overcast,190,2013-11-17 02:51:00
10:51 PM,55.0,50.0,83,29.98,10.0,South,9.2,-,N/A,,Overcast,190,2013-11-17 03:51:00
11:51 PM,55.0,50.0,83,29.96,10.0,South,11.5,-,N/A,,Overcast,190,2013-11-17 04:51:00